Salt Flat, TX

2:26 AM CST on February 24, 2017 (GMT -0600)
Guadalupe Pass

Weather History for KGDP - September, 2012

Change the Weather History Date:

Friday, September 21, 2012

  Actual Average Record
Temperature  
Mean Temperature 80 °F -  
Max Temperature 93 °F 78 °F 93 °F (2012)
Min Temperature 66 °F 57 °F 48 °F (1999)
Cooling Degree Days 14    
Growing Degree Days 30 (Base 50)    
Moisture  
Dew Point 26 °F    
Average Humidity 16    
Maximum Humidity 22    
Minimum Humidity 7    
Precipitation  
Precipitation 0.00 in - - ()
Sea Level Pressure  
Sea Level Pressure 29.92 in    
Wind  
Wind Speed 14 mph (WSW)    
Max Wind Speed 23 mph    
Max Gust Speed 32 mph    
Visibility 10 miles    
Events      
Averages and records for this station are not official NWS values.
T = Trace of Precipitation, MM = Missing Value Source: NWS Daily Summary

Daily Weather History Graph

Daily Weather History Graph

Search for Another Location

Airport or City:

Trip Planner

Search our weather history database for the weather conditions in past years. The results will help you decide how hot, cold, wet, or windy it might be!

Date:

Astronomy

Sep. 21, 2012 Rise Set
Actual Time 6:47 AM MDT 6:56 PM MDT
Civil Twilight 6:22 AM MDT 7:20 PM MDT
Nautical Twilight 5:54 AM MDT 7:49 PM MDT
Astronomical Twilight 5:25 AM MDT 8:17 PM MDT
Moon 12:49 PM MDT (9/21) 11:21 PM MDT (9/21)
Length of Visible Light 12h 57m
Length of Day
12h 09m
Waxing Crescent, 38% of the Moon is Illuminated
Sep 21
Waxing Crescent
Sep 22
First Quarter
Sep 29
Full
Oct 8
Last Quarter
Oct 15
New

Hourly Weather History & Observations

Time (MDT) Temp. Dew Point Humidity Pressure Visibility Wind Dir Wind Speed Gust Speed Precip Events Conditions
12:51 AM 72.0 °F 28.9 °F 20% 29.90 in 10.0 mi WSW 15.0 mph - N/A   Clear
1:51 AM 72.0 °F 28.0 °F 20% 29.90 in 10.0 mi WSW 12.7 mph - N/A   Clear
2:51 AM 69.1 °F 27.0 °F 21% 29.91 in 10.0 mi WSW 13.8 mph - N/A   Clear
3:51 AM 68.0 °F 28.0 °F 22% 29.90 in 10.0 mi WSW 12.7 mph - N/A   Clear
4:51 AM 68.0 °F 27.0 °F 21% 29.91 in 10.0 mi WSW 11.5 mph - N/A   Clear
5:51 AM 68.0 °F 27.0 °F 21% 29.93 in 10.0 mi WSW 11.5 mph - N/A   Clear
6:51 AM 66.9 °F 25.0 °F 21% 29.95 in 9.0 mi WSW 11.5 mph - N/A   Clear
7:51 AM 73.0 °F 27.0 °F 18% 29.95 in 9.0 mi WSW 17.3 mph - N/A   Clear
8:51 AM 73.0 °F 28.9 °F 20% 29.96 in 9.0 mi WSW 18.4 mph - N/A   Clear
9:51 AM 75.0 °F 28.9 °F 18% 29.97 in 9.0 mi SW 16.1 mph - N/A   Clear
10:51 AM 80.1 °F 28.9 °F 15% 29.96 in 9.0 mi WSW 17.3 mph - N/A   Clear
11:51 AM 84.9 °F 30.0 °F 14% 29.93 in 10.0 mi WSW 23.0 mph 32.2 mph N/A   Clear
12:51 PM 89.1 °F 27.0 °F 11% 29.90 in 10.0 mi WSW 23.0 mph 28.8 mph N/A   Partly Cloudy
1:51 PM 90.0 °F 26.1 °F 10% 29.88 in 10.0 mi WSW 19.6 mph 26.5 mph N/A   Clear
2:51 PM 93.0 °F 21.0 °F 7% 29.87 in 10.0 mi WSW 18.4 mph 24.2 mph N/A   Clear
3:51 PM 89.1 °F 19.9 °F 8% 29.87 in 10.0 mi West 11.5 mph 20.7 mph N/A   Clear
4:51 PM 87.1 °F 19.0 °F 8% 29.88 in 10.0 mi SSW 6.9 mph - N/A   Clear
5:51 PM 87.1 °F 19.0 °F 8% 29.88 in 10.0 mi WSW 13.8 mph 17.3 mph N/A   Clear
6:51 PM 80.1 °F 27.0 °F 14% 29.91 in 9.0 mi East 16.1 mph - N/A   Clear
7:51 PM 77.0 °F 26.1 °F 15% 29.93 in 10.0 mi East 13.8 mph - N/A   Clear
8:51 PM 75.0 °F 26.1 °F 16% 29.94 in 10.0 mi East 12.7 mph - N/A   Clear
9:51 PM 73.9 °F 27.0 °F 18% 29.93 in 10.0 mi East 13.8 mph - N/A   Clear
10:51 PM 77.0 °F 27.0 °F 16% 29.92 in 10.0 mi Variable 4.6 mph - N/A   Clear
11:51 PM 75.0 °F 27.0 °F 17% 29.91 in 10.0 mi North 4.6 mph - N/A   Clear